Time,TemperatureF,DewpointF,PressureIn,WindDirection,WindDirectionDegrees,WindSpeedMPH,WindSpeedGustMPH,Humidity,HourlyPrecipIn,Conditions,Clouds,dailyrainin,SoftwareType,DateUTC
2013-03-05 00:00:00,47.5,15.2,30.16,NW,313,0.0,0.0,27,0.00,,---,0.00,VWS V14.01,2013-03-05 05:00:00,
2013-03-05 00:05:00,47.3,15.9,30.16,NW,313,0.0,0.0,28,0.00,,---,0.00,VWS V14.01,2013-03-05 05:05:00,
2013-03-05 00:10:00,47.3,15.9,30.14,NW,313,0.0,0.0,28,0.00,,---,0.00,VWS V14.01,2013-03-05 05:10:00,
2013-03-05 00:15:00,47.3,16.7,30.14,NW,313,0.0,0.0,29,0.00,,---,0.00,VWS V14.01,2013-03-05 05:15:00,
2013-03-05 00:20:00,47.3,16.7,30.14,NW,313,0.0,0.0,29,0.00,,---,0.00,VWS V14.01,2013-03-05 05:20:00,
2013-03-05 00:25:00,47.3,17.5,30.14,NW,313,0.0,0.0,30,0.00,,---,0.00,VWS V14.01,2013-03-05 05:25:00,
2013-03-05 00:30:00,47.3,17.5,30.14,NW,313,0.0,0.0,30,0.00,,---,0.00,VWS V14.01,2013-03-05 05:30:00,
2013-03-05 00:35:00,47.3,17.5,30.14,NW,313,0.0,0.0,30,0.00,,---,0.00,VWS V14.01,2013-03-05 05:35:00,
2013-03-05 00:40:00,47.3,17.5,30.14,NW,313,0.0,0.0,30,0.00,,---,0.00,VWS V14.01,2013-03-05 05:40:00,
2013-03-05 00:45:00,47.3,17.5,30.14,NW,313,0.0,0.0,30,0.00,,---,0.00,VWS V14.01,2013-03-05 05:45:00,
2013-03-05 00:50:00,47.3,17.5,30.14,NW,313,0.0,0.0,30,0.00,,---,0.00,VWS V14.01,2013-03-05 05:50:00,
2013-03-05 00:55:00,47.1,17.3,30.14,NW,313,0.0,0.0,30,0.00,,---,0.00,VWS V14.01,2013-03-05 05:55:00,
2013-03-05 01:00:00,46.9,17.1,30.14,NW,313,0.0,0.0,30,0.00,,---,0.00,VWS V14.01,2013-03-05 06:00:00,
2013-03-05 01:05:00,46.9,17.9,30.14,NW,313,0.0,0.0,31,0.00,,---,0.00,VWS V14.01,2013-03-05 06:05:00,
2013-03-05 01:10:00,46.9,17.9,30.14,NW,313,0.0,0.0,31,0.00,,---,0.00,VWS V14.01,2013-03-05 06:10:00,
2013-03-05 01:15:00,46.9,17.9,30.14,NW,313,0.0,0.0,31,0.00,,---,0.00,VWS V14.01,2013-03-05 06:15:00,
2013-03-05 01:20:00,46.9,17.9,30.14,NW,313,0.0,0.0,31,0.00,,---,0.00,VWS V14.01,2013-03-05 06:20:00,
2013-03-05 01:25:00,47.1,18.1,30.11,NW,313,0.0,0.0,31,0.00,,---,0.00,VWS V14.01,2013-03-05 06:25:00,
2013-03-05 01:30:00,47.1,18.8,30.11,NW,313,0.0,0.0,32,0.00,,---,0.00,VWS V14.01,2013-03-05 06:30:00,
2013-03-05 01:35:00,47.1,18.8,30.11,NW,313,0.0,0.0,32,0.00,,---,0.00,VWS V14.01,2013-03-05 06:35:00,
2013-03-05 01:40:00,46.9,18.6,30.14,NW,313,0.0,0.0,32,0.00,,---,0.00,VWS V14.01,2013-03-05 06:40:00,
2013-03-05 01:45:00,46.8,18.5,30.14,NW,313,0.0,0.0,32,0.00,,---,0.00,VWS V14.01,2013-03-05 06:45:00,
2013-03-05 01:50:00,46.8,18.5,30.14,NW,313,0.0,0.0,32,0.00,,---,0.00,VWS V14.01,2013-03-05 06:50:00,
2013-03-05 01:55:00,46.6,19.0,30.14,NW,313,0.0,0.0,33,0.00,,---,0.00,VWS V14.01,2013-03-05 06:55:00,
2013-03-05 02:00:00,46.6,19.0,30.14,NW,313,0.0,0.0,33,0.00,,---,0.00,VWS V14.01,2013-03-05 07:00:00,
2013-03-05 02:05:00,46.6,19.0,30.14,NW,313,0.0,0.0,33,0.00,,---,0.00,VWS V14.01,2013-03-05 07:05:00,
2013-03-05 02:10:00,46.4,19.6,30.14,NW,313,0.0,0.0,34,0.00,,---,0.00,VWS V14.01,2013-03-05 07:10:00,
2013-03-05 02:15:00,46.4,19.6,30.14,NW,313,0.0,0.0,34,0.00,,---,0.00,VWS V14.01,2013-03-05 07:15:00,
2013-03-05 02:20:00,46.2,20.1,30.14,NW,313,0.0,0.0,35,0.00,,---,0.00,VWS V14.01,2013-03-05 07:20:00,
2013-03-05 02:25:00,46.0,19.9,30.14,NW,313,0.0,0.0,35,0.00,,---,0.00,VWS V14.01,2013-03-05 07:25:00,
2013-03-05 02:30:00,46.0,19.3,30.14,NW,313,0.0,0.0,34,0.00,,---,0.00,VWS V14.01,2013-03-05 07:30:00,
2013-03-05 02:35:00,45.9,19.8,30.14,NW,313,0.0,0.0,35,0.00,,---,0.00,VWS V14.01,2013-03-05 07:35:00,
2013-03-05 02:40:00,45.9,19.8,30.14,NW,313,0.0,0.0,35,0.00,,---,0.00,VWS V14.01,2013-03-05 07:40:00,
2013-03-05 02:45:00,45.5,18.8,30.14,NW,313,0.0,0.0,34,0.00,,---,0.00,VWS V14.01,2013-03-05 07:45:00,
2013-03-05 02:50:00,45.3,19.3,30.14,NW,313,0.0,0.0,35,0.00,,---,0.00,VWS V14.01,2013-03-05 07:50:00,
2013-03-05 02:55:00,45.3,19.3,30.14,NW,313,0.0,0.0,35,0.00,,---,0.00,VWS V14.01,2013-03-05 07:55:00,
2013-03-05 03:00:00,45.3,19.3,30.14,NW,313,0.0,0.0,35,0.00,,---,0.00,VWS V14.01,2013-03-05 08:00:00,
2013-03-05 03:05:00,45.1,19.1,30.14,NW,313,0.0,0.0,35,0.00,,---,0.00,VWS V14.01,2013-03-05 08:05:00,
2013-03-05 03:10:00,45.1,20.4,30.14,NW,313,0.0,0.0,37,0.00,,---,0.00,VWS V14.01,2013-03-05 08:10:00,
2013-03-05 03:15:00,45.1,20.4,30.14,NW,313,0.0,0.0,37,0.00,,---,0.00,VWS V14.01,2013-03-05 08:15:00,
2013-03-05 03:20:00,45.1,20.4,30.14,NW,313,0.0,0.0,37,0.00,,---,0.00,VWS V14.01,2013-03-05 08:20:00,
2013-03-05 03:25:00,45.0,20.3,30.14,NW,313,0.0,0.0,37,0.00,,---,0.00,VWS V14.01,2013-03-05 08:25:00,
2013-03-05 03:30:00,44.8,20.1,30.14,NW,313,0.0,0.0,37,0.00,,---,0.00,VWS V14.01,2013-03-05 08:30:00,
2013-03-05 03:34:00,44.8,20.1,30.14,NW,313,0.0,0.0,37,0.00,,---,0.00,VWS V14.01,2013-03-05 08:34:00,
2013-03-05 03:39:00,44.8,20.1,30.11,NW,313,0.0,0.0,37,0.00,,---,0.00,VWS V14.01,2013-03-05 08:39:00,
2013-03-05 03:44:00,44.8,20.1,30.11,NW,313,0.0,0.0,37,0.00,,---,0.00,VWS V14.01,2013-03-05 08:44:00,
2013-03-05 03:49:00,44.4,20.4,30.11,NW,313,0.0,0.0,38,0.00,,---,0.00,VWS V14.01,2013-03-05 08:49:00,
2013-03-05 03:54:00,44.2,20.3,30.11,NW,313,0.0,0.0,38,0.00,,---,0.00,VWS V14.01,2013-03-05 08:54:00,
2013-03-05 03:59:00,44.2,20.3,30.11,NW,313,0.0,0.0,38,0.00,,---,0.00,VWS V14.01,2013-03-05 08:59:00,
2013-03-05 04:04:00,44.2,20.3,30.11,NW,313,0.0,0.0,38,0.00,,---,0.00,VWS V14.01,2013-03-05 09:04:00,
2013-03-05 04:09:00,44.2,20.3,30.14,NW,313,0.0,0.0,38,0.00,,---,0.00,VWS V14.01,2013-03-05 09:09:00,
2013-03-05 04:14:00,44.2,20.3,30.14,NW,313,0.0,0.0,38,0.00,,---,0.00,VWS V14.01,2013-03-05 09:14:00,
2013-03-05 04:19:00,44.2,20.3,30.14,NW,313,0.0,0.0,38,0.00,,---,0.00,VWS V14.01,2013-03-05 09:19:00,
2013-03-05 04:24:00,44.2,20.3,30.11,NW,313,0.0,0.0,38,0.00,,---,0.00,VWS V14.01,2013-03-05 09:24:00,
2013-03-05 04:29:00,44.1,20.1,30.11,NW,313,0.0,0.0,38,0.00,,---,0.00,VWS V14.01,2013-03-05 09:29:00,
2013-03-05 04:34:00,44.1,20.1,30.11,NW,313,0.0,0.0,38,0.00,,---,0.00,VWS V14.01,2013-03-05 09:34:00,
2013-03-05 04:39:00,44.1,20.1,30.11,NW,313,0.0,0.0,38,0.00,,---,0.00,VWS V14.01,2013-03-05 09:39:00,
2013-03-05 04:44:00,44.1,20.7,30.11,NW,313,0.0,0.0,39,0.00,,---,0.00,VWS V14.01,2013-03-05 09:44:00,
2013-03-05 04:49:00,44.1,20.7,30.11,NW,313,0.0,0.0,39,0.00,,---,0.00,VWS V14.01,2013-03-05 09:49:00,
2013-03-05 04:54:00,44.1,20.7,30.11,NW,313,0.0,0.0,39,0.00,,---,0.00,VWS V14.01,2013-03-05 09:54:00,
2013-03-05 04:59:00,44.2,20.9,30.11,NW,313,0.0,0.0,39,0.00,,---,0.00,VWS V14.01,2013-03-05 09:59:00,
2013-03-05 05:04:00,44.4,21.6,30.11,NW,313,0.0,0.0,40,0.00,,---,0.00,VWS V14.01,2013-03-05 10:04:00,
2013-03-05 05:09:00,44.8,21.4,30.11,NW,313,0.0,0.0,39,0.00,,---,0.00,VWS V14.01,2013-03-05 10:09:00,
2013-03-05 05:14:00,45.0,21.5,30.11,NW,313,0.0,0.0,39,0.00,,---,0.00,VWS V14.01,2013-03-05 10:14:00,
2013-03-05 05:19:00,45.1,21.7,30.11,NW,313,0.0,0.0,39,0.00,,---,0.00,VWS V14.01,2013-03-05 10:19:00,
2013-03-05 05:24:00,45.3,22.4,30.14,NW,313,0.0,0.0,40,0.00,,---,0.00,VWS V14.01,2013-03-05 10:24:00,
2013-03-05 05:29:00,45.5,22.6,30.14,NW,313,0.0,0.0,40,0.00,,---,0.00,VWS V14.01,2013-03-05 10:29:00,
2013-03-05 05:34:00,45.5,22.6,30.14,NW,313,0.0,0.0,40,0.00,,---,0.00,VWS V14.01,2013-03-05 10:34:00,
2013-03-05 05:39:00,45.7,22.8,30.14,NW,313,0.0,0.0,40,0.00,,---,0.00,VWS V14.01,2013-03-05 10:39:00,
2013-03-05 05:44:00,45.9,22.9,30.14,NW,313,0.0,0.0,40,0.00,,---,0.00,VWS V14.01,2013-03-05 10:44:00,
2013-03-05 05:49:00,45.9,22.9,30.14,NW,313,0.0,0.0,40,0.00,,---,0.00,VWS V14.01,2013-03-05 10:49:00,
2013-03-05 05:54:00,45.9,22.9,30.14,NW,313,0.0,0.0,40,0.00,,---,0.00,VWS V14.01,2013-03-05 10:54:00,
2013-03-05 05:59:00,45.9,22.9,30.14,NW,313,0.0,0.0,40,0.00,,---,0.00,VWS V14.01,2013-03-05 10:59:00,
2013-03-05 06:04:00,46.0,23.1,30.14,NW,313,0.0,0.0,40,0.00,,---,0.00,VWS V14.01,2013-03-05 11:04:00,
2013-03-05 06:09:00,46.0,23.1,30.14,NW,313,0.0,0.0,40,0.00,,---,0.00,VWS V14.01,2013-03-05 11:09:00,
2013-03-05 06:14:00,46.0,23.1,30.14,NW,313,0.0,0.0,40,0.00,,---,0.00,VWS V14.01,2013-03-05 11:14:00,
2013-03-05 06:19:00,46.2,23.2,30.14,NW,313,0.0,0.0,40,0.00,,---,0.00,VWS V14.01,2013-03-05 11:19:00,
2013-03-05 06:24:00,46.4,23.4,30.14,NW,313,0.0,0.0,40,0.00,,---,0.00,VWS V14.01,2013-03-05 11:24:00,
2013-03-05 06:29:00,46.4,23.4,30.14,NW,313,0.0,0.0,40,0.00,,---,0.00,VWS V14.01,2013-03-05 11:29:00,
2013-03-05 06:34:00,46.4,23.4,30.14,NW,313,0.0,0.0,40,0.00,,---,0.00,VWS V14.01,2013-03-05 11:34:00,
2013-03-05 06:39:00,46.4,23.4,30.14,NW,313,0.0,0.0,40,0.00,,---,0.00,VWS V14.01,2013-03-05 11:39:00,
2013-03-05 06:44:00,46.2,23.2,30.14,NW,313,0.0,0.0,40,0.00,,---,0.00,VWS V14.01,2013-03-05 11:44:00,
2013-03-05 06:49:00,46.4,23.4,30.14,NW,313,0.0,0.0,40,0.00,,---,0.00,VWS V14.01,2013-03-05 11:49:00,
2013-03-05 06:54:00,46.4,23.4,30.14,NW,314,0.0,0.0,40,0.00,,---,0.00,VWS V14.01,2013-03-05 11:54:00,
2013-03-05 06:59:00,46.2,23.8,30.14,NW,313,0.0,0.0,41,0.00,,---,0.00,VWS V14.01,2013-03-05 11:59:00,
2013-03-05 07:04:00,46.0,23.7,30.14,NW,313,0.0,0.0,41,0.00,,---,0.00,VWS V14.01,2013-03-05 12:04:00,
2013-03-05 07:09:00,46.0,23.7,30.14,NW,313,0.0,0.0,41,0.00,,---,0.00,VWS V14.01,2013-03-05 12:09:00,
2013-03-05 07:14:00,46.2,23.8,30.14,NW,313,0.0,0.0,41,0.00,,---,0.00,VWS V14.01,2013-03-05 12:14:00,
2013-03-05 07:19:00,46.2,23.8,30.14,NW,313,0.0,0.0,41,0.00,,---,0.00,VWS V14.01,2013-03-05 12:19:00,
2013-03-05 07:24:00,46.4,24.0,30.16,NW,313,0.0,0.0,41,0.00,,---,0.00,VWS V14.01,2013-03-05 12:24:00,
2013-03-05 07:29:00,46.6,24.2,30.16,NW,313,0.0,0.0,41,0.00,,---,0.00,VWS V14.01,2013-03-05 12:29:00,
2013-03-05 07:34:00,46.8,24.3,30.16,NW,313,0.0,0.0,41,0.00,,---,0.00,VWS V14.01,2013-03-05 12:34:00,
2013-03-05 07:39:00,46.9,25.1,30.14,NW,313,0.0,0.0,42,0.00,,---,0.00,VWS V14.01,2013-03-05 12:39:00,
2013-03-05 07:44:00,47.1,25.2,30.14,NW,314,0.0,0.0,42,0.00,,---,0.00,VWS V14.01,2013-03-05 12:44:00,
2013-03-05 07:49:00,47.5,25.5,30.14,NW,313,0.0,0.0,42,0.00,,---,0.00,VWS V14.01,2013-03-05 12:49:00,
2013-03-05 07:54:00,48.0,26.6,30.16,NW,313,0.0,0.0,43,0.00,,---,0.00,VWS V14.01,2013-03-05 12:54:00,
2013-03-05 07:59:00,48.7,27.3,30.16,NW,314,0.0,0.0,43,0.00,,---,0.00,VWS V14.01,2013-03-05 12:59:00,
2013-03-05 08:04:00,49.3,27.8,30.16,NW,313,0.0,0.0,43,0.00,,---,0.00,VWS V14.01,2013-03-05 13:04:00,
2013-03-05 08:09:00,50.2,28.6,30.16,NW,313,0.0,0.0,43,0.00,,---,0.00,VWS V14.01,2013-03-05 13:09:00,
2013-03-05 08:14:00,50.9,29.8,30.16,NW,313,0.0,0.0,44,0.00,,---,0.00,VWS V14.01,2013-03-05 13:14:00,
2013-03-05 08:19:00,51.6,29.9,30.16,NW,313,0.0,0.0,43,0.00,,---,0.00,VWS V14.01,2013-03-05 13:19:00,
2013-03-05 08:24:00,52.3,29.4,30.16,NW,313,0.0,0.0,41,0.00,,---,0.00,VWS V14.01,2013-03-05 13:24:00,
2013-03-05 08:29:00,53.2,28.9,30.16,NW,312,0.0,0.0,39,0.00,,---,0.00,VWS V14.01,2013-03-05 13:29:00,
2013-03-05 08:34:00,54.0,27.6,30.16,West,275,0.0,0.0,36,0.00,,---,0.00,VWS V14.01,2013-03-05 13:34:00,
2013-03-05 08:39:00,54.5,26.7,30.16,WSW,250,0.0,0.0,34,0.00,,---,0.00,VWS V14.01,2013-03-05 13:39:00,
2013-03-05 08:44:00,55.0,25.0,30.16,WSW,242,0.0,0.0,31,0.00,,---,0.00,VWS V14.01,2013-03-05 13:44:00,
2013-03-05 08:49:00,55.6,22.1,30.16,WSW,242,0.0,0.0,27,0.00,,---,0.00,VWS V14.01,2013-03-05 13:49:00,
2013-03-05 08:54:00,56.1,21.7,30.16,WSW,243,0.0,0.0,26,0.00,,---,0.00,VWS V14.01,2013-03-05 13:54:00,
2013-03-05 08:59:00,56.5,21.1,30.16,WSW,249,0.0,3.1,25,0.00,,---,0.00,VWS V14.01,2013-03-05 13:59:00,
2013-03-05 09:04:00,57.0,21.6,30.16,South,174,0.0,0.0,25,0.00,,---,0.00,VWS V14.01,2013-03-05 14:04:00,
2013-03-05 09:09:00,57.4,20.9,30.16,SSW,196,0.0,0.0,24,0.00,,---,0.00,VWS V14.01,2013-03-05 14:09:00,
2013-03-05 09:14:00,57.9,21.4,30.16,SSW,196,0.0,0.0,24,0.00,,---,0.00,VWS V14.01,2013-03-05 14:14:00,
2013-03-05 09:19:00,58.3,21.7,30.16,SW,219,0.0,0.0,24,0.00,,---,0.00,VWS V14.01,2013-03-05 14:19:00,
2013-03-05 09:24:00,58.8,22.1,30.16,SW,236,0.0,0.0,24,0.00,,---,0.00,VWS V14.01,2013-03-05 14:24:00,
2013-03-05 09:29:00,59.4,22.6,30.16,WSW,245,0.0,0.0,24,0.00,,---,0.00,VWS V14.01,2013-03-05 14:29:00,
2013-03-05 09:34:00,59.7,22.9,30.16,SE,136,0.0,0.0,24,0.00,,---,0.00,VWS V14.01,2013-03-05 14:34:00,
2013-03-05 09:39:00,60.3,21.3,30.16,WSW,240,0.0,0.0,22,0.00,,---,0.00,VWS V14.01,2013-03-05 14:39:00,
2013-03-05 09:44:00,60.8,18.3,30.16,WSW,240,0.0,0.0,19,0.00,,---,0.00,VWS V14.01,2013-03-05 14:44:00,
2013-03-05 09:49:00,61.2,18.6,30.16,WSW,252,0.0,0.0,19,0.00,,---,0.00,VWS V14.01,2013-03-05 14:49:00,
2013-03-05 09:54:00,61.7,19.0,30.16,SW,214,0.0,0.0,19,0.00,,---,0.00,VWS V14.01,2013-03-05 14:54:00,
2013-03-05 09:59:00,62.1,19.3,30.16,SW,235,0.0,3.1,19,0.00,,---,0.00,VWS V14.01,2013-03-05 14:59:00,
2013-03-05 10:04:00,62.6,18.5,30.16,WSW,247,2.7,2.7,18,0.00,,---,0.00,VWS V14.01,2013-03-05 15:04:00,
2013-03-05 10:09:00,63.0,18.8,30.16,SW,231,0.0,0.0,18,0.00,,---,0.00,VWS V14.01,2013-03-05 15:09:00,
2013-03-05 10:14:00,63.5,16.5,30.16,SW,234,0.0,0.0,16,0.00,,---,0.00,VWS V14.01,2013-03-05 15:14:00,
2013-03-05 10:19:00,63.9,16.8,30.16,West,278,2.2,2.7,16,0.00,,---,0.00,VWS V14.01,2013-03-05 15:19:00,
2013-03-05 10:24:00,64.4,15.8,30.16,WSW,251,2.2,2.2,15,0.00,,---,0.00,VWS V14.01,2013-03-05 15:24:00,
2013-03-05 10:29:00,64.8,16.1,30.16,SW,234,3.6,3.6,15,0.00,,---,0.00,VWS V14.01,2013-03-05 15:29:00,
2013-03-05 10:34:00,64.8,16.1,30.16,South,171,3.1,4.0,15,0.00,,---,0.00,VWS V14.01,2013-03-05 15:34:00,
2013-03-05 10:39:00,64.9,16.2,30.16,West,278,0.0,0.0,15,0.00,,---,0.00,VWS V14.01,2013-03-05 15:39:00,
2013-03-05 10:44:00,65.1,16.4,30.16,WSW,242,0.0,0.0,15,0.00,,---,0.00,VWS V14.01,2013-03-05 15:44:00,
2013-03-05 10:49:00,65.1,16.4,30.16,WSW,238,0.0,0.0,15,0.00,,---,0.00,VWS V14.01,2013-03-05 15:49:00,
2013-03-05 10:54:00,65.5,16.6,30.16,SW,234,0.0,0.0,15,0.00,,---,0.00,VWS V14.01,2013-03-05 15:54:00,
2013-03-05 10:59:00,66.0,17.1,30.16,WSW,243,2.7,2.7,15,0.00,,---,0.00,VWS V14.01,2013-03-05 15:59:00,
2013-03-05 11:04:00,66.6,17.5,30.16,WSW,241,0.0,2.7,15,0.00,,---,0.00,VWS V14.01,2013-03-05 16:04:00,
2013-03-05 11:09:00,66.6,12.4,30.16,SW,223,0.0,3.6,12,0.00,,---,0.00,VWS V14.01,2013-03-05 16:09:00,
2013-03-05 11:14:00,66.7,12.5,30.16,West,261,2.7,2.7,12,0.00,,---,0.00,VWS V14.01,2013-03-05 16:14:00,
2013-03-05 11:19:00,66.9,12.7,30.16,WSW,246,4.0,4.0,12,0.00,,---,0.00,VWS V14.01,2013-03-05 16:19:00,
2013-03-05 11:24:00,67.3,13.0,30.16,SW,220,3.1,4.0,12,0.00,,---,0.00,VWS V14.01,2013-03-05 16:24:00,
2013-03-05 11:29:00,67.8,13.4,30.16,WSW,247,3.6,3.6,12,0.00,,---,0.00,VWS V14.01,2013-03-05 16:29:00,
2013-03-05 11:34:00,68.2,13.7,30.16,WSW,246,3.1,3.1,12,0.00,,---,0.00,VWS V14.01,2013-03-05 16:34:00,
2013-03-05 11:39:00,68.2,13.7,30.16,SW,236,2.7,2.7,12,0.00,,---,0.00,VWS V14.01,2013-03-05 16:39:00,
2013-03-05 11:44:00,68.0,13.5,30.16,WSW,246,3.1,4.0,12,0.00,,---,0.00,VWS V14.01,2013-03-05 16:44:00,
2013-03-05 11:49:00,68.2,13.7,30.16,WSW,244,2.7,2.7,12,0.00,,---,0.00,VWS V14.01,2013-03-05 16:49:00,
2013-03-05 11:54:00,68.5,13.9,30.16,SW,231,0.0,3.6,12,0.00,,---,0.00,VWS V14.01,2013-03-05 16:54:00,
2013-03-05 11:59:00,68.7,14.1,30.16,NNW,342,2.7,5.4,12,0.00,,---,0.00,VWS V14.01,2013-03-05 16:59:00,
2013-03-05 12:04:00,68.9,14.2,30.16,SW,231,3.6,3.6,12,0.00,,---,0.00,VWS V14.01,2013-03-05 17:04:00,
2013-03-05 12:09:00,68.9,14.2,30.16,South,191,3.6,4.0,12,0.00,,---,0.00,VWS V14.01,2013-03-05 17:09:00,
2013-03-05 12:14:00,69.3,14.5,30.16,WSW,243,2.7,2.7,12,0.00,,---,0.00,VWS V14.01,2013-03-05 17:14:00,
2013-03-05 12:19:00,69.6,14.8,30.16,SW,235,3.1,3.6,12,0.00,,---,0.00,VWS V14.01,2013-03-05 17:19:00,
2013-03-05 12:24:00,69.6,14.8,30.14,SW,234,2.7,2.7,12,0.00,,---,0.00,VWS V14.01,2013-03-05 17:24:00,
2013-03-05 12:29:00,69.3,14.5,30.14,SW,234,0.0,3.1,12,0.00,,---,0.00,VWS V14.01,2013-03-05 17:29:00,
2013-03-05 12:34:00,69.4,14.6,30.14,West,275,0.0,0.0,12,0.00,,---,0.00,VWS V14.01,2013-03-05 17:34:00,
2013-03-05 12:39:00,69.8,14.9,30.14,WSW,238,3.1,3.1,12,0.00,,---,0.00,VWS V14.01,2013-03-05 17:39:00,
2013-03-05 12:44:00,70.2,15.2,30.14,SSW,207,2.2,4.0,12,0.00,,---,0.00,VWS V14.01,2013-03-05 17:44:00,
2013-03-05 12:49:00,70.5,15.5,30.14,WSW,252,3.1,3.6,12,0.00,,---,0.00,VWS V14.01,2013-03-05 17:49:00,
2013-03-05 12:54:00,70.7,15.6,30.14,SW,235,0.0,2.2,12,0.00,,---,0.00,VWS V14.01,2013-03-05 17:54:00,
2013-03-05 12:59:00,71.1,15.9,30.14,South,178,3.6,3.6,12,0.00,,---,0.00,VWS V14.01,2013-03-05 17:59:00,
2013-03-05 13:04:00,71.1,15.9,30.14,WSW,242,3.1,3.6,12,0.00,,---,0.00,VWS V14.01,2013-03-05 18:04:00,
2013-03-05 13:09:00,71.2,16.1,30.14,SW,231,3.6,3.6,12,0.00,,---,0.00,VWS V14.01,2013-03-05 18:09:00,
2013-03-05 13:14:00,71.8,14.5,30.14,WSW,252,4.9,5.4,11,0.00,,---,0.00,VWS V14.01,2013-03-05 18:14:00,
2013-03-05 13:19:00,71.8,14.5,30.14,WSW,253,3.1,5.4,11,0.00,,---,0.00,VWS V14.01,2013-03-05 18:19:00,
2013-03-05 13:24:00,72.0,14.6,30.11,SW,230,2.7,4.0,11,0.00,,---,0.00,VWS V14.01,2013-03-05 18:24:00,
2013-03-05 13:29:00,72.3,14.9,30.11,West,270,3.1,4.0,11,0.00,,---,0.00,VWS V14.01,2013-03-05 18:29:00,
2013-03-05 13:34:00,72.5,15.0,30.11,West,267,0.0,0.0,11,0.00,,---,0.00,VWS V14.01,2013-03-05 18:34:00,
2013-03-05 13:39:00,72.5,15.0,30.11,SW,235,2.7,2.7,11,0.00,,---,0.00,VWS V14.01,2013-03-05 18:39:00,
2013-03-05 13:44:00,72.7,15.2,30.11,WSW,237,3.6,3.6,11,0.00,,---,0.00,VWS V14.01,2013-03-05 18:44:00,
2013-03-05 13:49:00,73.0,15.5,30.11,WSW,251,2.2,3.6,11,0.00,,---,0.00,VWS V14.01,2013-03-05 18:49:00,
2013-03-05 13:54:00,73.0,15.5,30.11,WSW,245,2.7,3.1,11,0.00,,---,0.00,VWS V14.01,2013-03-05 18:54:00,
2013-03-05 13:59:00,72.9,15.3,30.11,WSW,241,0.0,0.0,11,0.00,,---,0.00,VWS V14.01,2013-03-05 18:59:00,
2013-03-05 14:04:00,73.2,15.6,30.11,WSW,248,3.6,4.0,11,0.00,,---,0.00,VWS V14.01,2013-03-05 19:04:00,
2013-03-05 14:09:00,73.4,15.7,30.11,SW,222,0.0,0.0,11,0.00,,---,0.00,VWS V14.01,2013-03-05 19:09:00,
2013-03-05 14:14:00,74.1,16.3,30.11,SW,219,0.0,5.8,11,0.00,,---,0.00,VWS V14.01,2013-03-05 19:14:00,
2013-03-05 14:19:00,74.3,16.4,30.11,SW,228,2.2,2.2,11,0.00,,---,0.00,VWS V14.01,2013-03-05 19:19:00,
2013-03-05 14:24:00,74.7,16.7,30.11,NNW,329,0.0,3.1,11,0.00,,---,0.00,VWS V14.01,2013-03-05 19:24:00,
2013-03-05 14:29:00,74.7,16.7,30.11,SW,230,3.6,4.9,11,0.00,,---,0.00,VWS V14.01,2013-03-05 19:29:00,
2013-03-05 14:34:00,74.7,16.7,30.11,SW,233,3.6,3.6,11,0.00,,---,0.00,VWS V14.01,2013-03-05 19:34:00,
2013-03-05 14:39:00,74.7,9.5,30.11,WSW,243,3.6,3.6,8,0.00,,---,0.00,VWS V14.01,2013-03-05 19:39:00,
2013-03-05 14:44:00,74.3,16.4,30.11,WSW,249,0.0,4.0,11,0.00,,---,0.00,VWS V14.01,2013-03-05 19:44:00,
2013-03-05 14:49:00,74.7,16.7,30.11,WSW,238,2.7,2.7,11,0.00,,---,0.00,VWS V14.01,2013-03-05 19:49:00,
2013-03-05 14:54:00,75.4,15.1,30.11,WSW,252,2.7,2.7,10,0.00,,---,0.00,VWS V14.01,2013-03-05 19:54:00,
2013-03-05 14:59:00,75.4,15.1,30.11,WSW,255,2.7,3.6,10,0.00,,---,0.00,VWS V14.01,2013-03-05 19:59:00,
2013-03-05 15:04:00,75.0,17.0,30.11,West,259,3.6,4.0,11,0.00,,---,0.00,VWS V14.01,2013-03-05 20:04:00,
2013-03-05 15:09:00,74.8,16.9,30.11,SSW,207,2.7,3.1,11,0.00,,---,0.00,VWS V14.01,2013-03-05 20:09:00,
2013-03-05 15:14:00,74.8,9.6,30.11,WSW,240,3.1,3.6,8,0.00,,---,0.00,VWS V14.01,2013-03-05 20:14:00,
2013-03-05 15:19:00,74.3,16.4,30.11,WNW,283,0.0,3.1,11,0.00,,---,0.00,VWS V14.01,2013-03-05 20:19:00,
2013-03-05 15:24:00,74.1,16.3,30.11,SW,235,3.1,5.4,11,0.00,,---,0.00,VWS V14.01,2013-03-05 20:24:00,
2013-03-05 15:29:00,73.6,8.7,30.11,WSW,245,4.9,5.4,8,0.00,,---,0.00,VWS V14.01,2013-03-05 20:29:00,
2013-03-05 15:34:00,73.2,15.6,30.11,West,262,3.1,3.1,11,0.00,,---,0.00,VWS V14.01,2013-03-05 20:34:00,
2013-03-05 15:39:00,72.7,15.2,30.11,South,170,0.0,3.1,11,0.00,,---,0.00,VWS V14.01,2013-03-05 20:39:00,
2013-03-05 15:44:00,72.9,15.3,30.11,SW,231,2.7,3.1,11,0.00,,---,0.00,VWS V14.01,2013-03-05 20:44:00,
2013-03-05 15:49:00,72.5,15.0,30.11,WSW,241,0.0,5.8,11,0.00,,---,0.00,VWS V14.01,2013-03-05 20:49:00,
2013-03-05 15:54:00,72.0,10.1,30.11,SSW,212,0.0,2.7,9,0.00,,---,0.00,VWS V14.01,2013-03-05 20:54:00,
2013-03-05 15:59:00,72.1,10.2,30.11,SSE,164,3.1,4.0,9,0.00,,---,0.00,VWS V14.01,2013-03-05 20:59:00,
2013-03-05 16:04:00,72.1,14.8,30.11,WSW,237,2.2,2.7,11,0.00,,---,0.00,VWS V14.01,2013-03-05 21:04:00,
2013-03-05 16:09:00,72.0,14.6,30.11,WSW,248,3.1,3.1,11,0.00,,---,0.00,VWS V14.01,2013-03-05 21:09:00,
2013-03-05 16:14:00,71.8,14.5,30.11,WSW,240,2.7,3.6,11,0.00,,---,0.00,VWS V14.01,2013-03-05 21:14:00,
2013-03-05 16:19:00,71.4,16.2,30.11,WSW,246,5.8,5.8,12,0.00,,---,0.00,VWS V14.01,2013-03-05 21:19:00,
2013-03-05 16:24:00,70.9,15.8,30.11,WSW,240,3.6,3.6,12,0.00,,---,0.00,VWS V14.01,2013-03-05 21:24:00,
2013-03-05 16:29:00,70.7,15.6,30.11,WSW,243,2.7,3.6,12,0.00,,---,0.00,VWS V14.01,2013-03-05 21:29:00,
2013-03-05 16:34:00,70.7,15.6,30.11,SW,218,0.0,0.0,12,0.00,,---,0.00,VWS V14.01,2013-03-05 21:34:00,
2013-03-05 16:39:00,70.3,15.4,30.08,WSW,246,0.0,2.7,12,0.00,,---,0.00,VWS V14.01,2013-03-05 21:39:00,
2013-03-05 16:44:00,70.2,8.7,30.08,WSW,253,2.2,3.1,9,0.00,,---,0.00,VWS V14.01,2013-03-05 21:44:00,
2013-03-05 16:49:00,70.2,15.2,30.08,WSW,243,0.0,4.9,12,0.00,,---,0.00,VWS V14.01,2013-03-05 21:49:00,
2013-03-05 16:54:00,70.2,15.2,30.08,WSW,249,2.7,3.1,12,0.00,,---,0.00,VWS V14.01,2013-03-05 21:54:00,
2013-03-05 16:59:00,69.8,14.9,30.08,SSW,209,2.7,4.0,12,0.00,,---,0.00,VWS V14.01,2013-03-05 21:59:00,
2013-03-05 17:04:00,69.4,14.6,30.08,WSW,258,2.7,2.7,12,0.00,,---,0.00,VWS V14.01,2013-03-05 22:04:00,
2013-03-05 17:09:00,69.3,14.5,30.08,West,267,0.0,0.0,12,0.00,,---,0.00,VWS V14.01,2013-03-05 22:09:00,
2013-03-05 17:14:00,69.3,14.5,30.08,WSW,237,2.2,2.2,12,0.00,,---,0.00,VWS V14.01,2013-03-05 22:14:00,
2013-03-05 17:19:00,69.1,14.4,30.08,West,264,0.0,0.0,12,0.00,,---,0.00,VWS V14.01,2013-03-05 22:19:00,
2013-03-05 17:24:00,68.9,14.2,30.08,SSW,202,2.2,3.1,12,0.00,,---,0.00,VWS V14.01,2013-03-05 22:24:00,
2013-03-05 17:29:00,68.7,14.1,30.08,WSW,241,0.0,0.0,12,0.00,,---,0.00,VWS V14.01,2013-03-05 22:29:00,
2013-03-05 17:34:00,68.5,13.9,30.08,WSW,250,0.0,4.0,12,0.00,,---,0.00,VWS V14.01,2013-03-05 22:34:00,
2013-03-05 17:39:00,68.4,13.8,30.08,WSW,237,4.0,4.0,12,0.00,,---,0.00,VWS V14.01,2013-03-05 22:39:00,
2013-03-05 17:44:00,68.0,13.5,30.08,WSW,242,2.7,2.7,12,0.00,,---,0.00,VWS V14.01,2013-03-05 22:44:00,
2013-03-05 17:49:00,68.0,13.5,30.08,WSW,239,0.0,2.2,12,0.00,,---,0.00,VWS V14.01,2013-03-05 22:49:00,
2013-03-05 17:54:00,68.0,13.5,30.08,WSW,256,2.7,2.7,12,0.00,,---,0.00,VWS V14.01,2013-03-05 22:54:00,
2013-03-05 17:59:00,68.5,13.9,30.08,WNW,287,2.7,3.6,12,0.00,,---,0.00,VWS V14.01,2013-03-05 22:59:00,
2013-03-05 18:04:00,68.5,13.9,30.08,WSW,250,0.0,0.0,12,0.00,,---,0.00,VWS V14.01,2013-03-05 23:04:00,
2013-03-05 18:09:00,68.0,13.5,30.08,WSW,248,2.2,4.0,12,0.00,,---,0.00,VWS V14.01,2013-03-05 23:09:00,
2013-03-05 18:14:00,67.6,13.2,30.08,SW,236,0.0,0.0,12,0.00,,---,0.00,VWS V14.01,2013-03-05 23:14:00,
2013-03-05 18:19:00,67.1,12.8,30.08,South,186,2.7,4.0,12,0.00,,---,0.00,VWS V14.01,2013-03-05 23:19:00,
2013-03-05 18:24:00,66.9,12.7,30.08,SW,227,2.2,2.2,12,0.00,,---,0.00,VWS V14.01,2013-03-05 23:24:00,
2013-03-05 18:29:00,66.6,17.5,30.08,SW,233,2.7,2.7,15,0.00,,---,0.00,VWS V14.01,2013-03-05 23:29:00,
2013-03-05 18:34:00,66.4,17.4,30.08,SW,232,0.0,0.0,15,0.00,,---,0.00,VWS V14.01,2013-03-05 23:34:00,
2013-03-05 18:39:00,66.4,17.4,30.08,SW,232,0.0,0.0,15,0.00,,---,0.00,VWS V14.01,2013-03-05 23:39:00,
2013-03-05 18:44:00,66.2,20.1,30.08,SW,236,0.0,3.1,17,0.00,,---,0.00,VWS V14.01,2013-03-05 23:44:00,
2013-03-05 18:49:00,66.0,21.3,30.08,WSW,242,0.0,0.0,18,0.00,,---,0.00,VWS V14.01,2013-03-05 23:49:00,
2013-03-05 18:54:00,65.8,21.2,30.08,WSW,240,0.0,0.0,18,0.00,,---,0.00,VWS V14.01,2013-03-05 23:54:00,
2013-03-05 18:59:00,65.7,23.5,30.08,SW,231,0.0,0.0,20,0.00,,---,0.00,VWS V14.01,2013-03-05 23:59:00,
2013-03-05 19:04:00,65.5,23.4,30.08,SW,219,0.0,0.0,20,0.00,,---,0.00,VWS V14.01,2013-03-06 00:04:00,
2013-03-05 19:09:00,65.3,26.6,30.08,WSW,241,0.0,0.0,23,0.00,,---,0.00,VWS V14.01,2013-03-06 00:09:00,
2013-03-05 19:14:00,65.3,26.6,30.08,WSW,248,2.2,3.1,23,0.00,,---,0.00,VWS V14.01,2013-03-06 00:14:00,
2013-03-05 19:19:00,65.1,27.5,30.08,WSW,241,0.0,0.0,24,0.00,,---,0.00,VWS V14.01,2013-03-06 00:19:00,
2013-03-05 19:24:00,65.1,27.5,30.08,WSW,239,0.0,0.0,24,0.00,,---,0.00,VWS V14.01,2013-03-06 00:24:00,
2013-03-05 19:29:00,64.9,28.3,30.08,WSW,243,0.0,2.7,25,0.00,,---,0.00,VWS V14.01,2013-03-06 00:29:00,
2013-03-05 19:34:00,64.8,29.1,30.08,SW,231,0.0,0.0,26,0.00,,---,0.00,VWS V14.01,2013-03-06 00:34:00,
2013-03-05 19:39:00,64.8,30.0,30.08,SW,225,3.6,3.6,27,0.00,,---,0.00,VWS V14.01,2013-03-06 00:39:00,
2013-03-05 19:44:00,64.6,30.8,30.08,WSW,243,0.0,0.0,28,0.00,,---,0.00,VWS V14.01,2013-03-06 00:44:00,
2013-03-05 19:49:00,64.4,32.3,30.08,WSW,252,2.2,2.7,30,0.00,,---,0.00,VWS V14.01,2013-03-06 00:49:00,
2013-03-05 19:54:00,64.4,32.3,30.08,WSW,249,0.0,0.0,30,0.00,,---,0.00,VWS V14.01,2013-03-06 00:54:00,
2013-03-05 19:59:00,64.4,32.3,30.08,WSW,239,0.0,0.0,30,0.00,,---,0.00,VWS V14.01,2013-03-06 00:59:00,
2013-03-05 20:03:00,64.4,33.9,30.08,WSW,244,0.0,0.0,32,0.00,,---,0.00,VWS V14.01,2013-03-06 01:03:00,
2013-03-05 20:08:00,64.4,34.7,30.05,WSW,254,0.0,0.0,33,0.00,,---,0.00,VWS V14.01,2013-03-06 01:08:00,
2013-03-05 20:13:00,64.4,34.7,30.05,WSW,246,0.0,2.2,33,0.00,,---,0.00,VWS V14.01,2013-03-06 01:13:00,
2013-03-05 20:18:00,64.2,35.3,30.05,WSW,240,0.0,2.2,34,0.00,,---,0.00,VWS V14.01,2013-03-06 01:18:00,
2013-03-05 20:24:00,64.2,35.3,30.05,SW,215,0.0,0.0,34,0.00,,---,0.00,VWS V14.01,2013-03-06 01:24:00,
2013-03-05 20:29:00,64.2,35.3,30.05,SW,236,0.0,3.1,34,0.00,,---,0.00,VWS V14.01,2013-03-06 01:29:00,
2013-03-05 20:34:00,64.2,36.0,30.05,WSW,241,0.0,0.0,35,0.00,,---,0.00,VWS V14.01,2013-03-06 01:34:00,
2013-03-05 20:38:00,64.2,36.0,30.05,WSW,237,0.0,0.0,35,0.00,,---,0.00,VWS V14.01,2013-03-06 01:38:00,
2013-03-05 20:44:00,64.2,36.7,30.05,SW,232,0.0,0.0,36,0.00,,---,0.00,VWS V14.01,2013-03-06 01:44:00,
2013-03-05 20:49:00,64.2,36.7,30.05,WSW,238,2.7,3.1,36,0.00,,---,0.00,VWS V14.01,2013-03-06 01:49:00,
2013-03-05 20:54:00,64.2,36.7,30.05,WSW,244,2.7,3.1,36,0.00,,---,0.00,VWS V14.01,2013-03-06 01:54:00,
2013-03-05 20:59:00,64.2,36.7,30.05,SW,235,0.0,0.0,36,0.00,,---,0.00,VWS V14.01,2013-03-06 01:59:00,
2013-03-05 21:04:00,64.2,37.4,30.05,WSW,238,2.7,2.7,37,0.00,,---,0.00,VWS V14.01,2013-03-06 02:04:00,
2013-03-05 21:09:00,64.2,37.4,30.05,WSW,243,2.2,4.0,37,0.00,,---,0.00,VWS V14.01,2013-03-06 02:09:00,
2013-03-05 21:14:00,64.2,37.4,30.05,SW,218,0.0,4.0,37,0.00,,---,0.00,VWS V14.01,2013-03-06 02:14:00,
2013-03-05 21:19:00,64.2,37.4,30.05,SW,232,0.0,0.0,37,0.00,,---,0.00,VWS V14.01,2013-03-06 02:19:00,
2013-03-05 21:24:00,64.2,38.1,30.05,SSW,210,0.0,0.0,38,0.00,,---,0.00,VWS V14.01,2013-03-06 02:24:00,
2013-03-05 21:28:00,64.2,38.1,30.05,SW,223,0.0,3.6,38,0.00,,---,0.00,VWS V14.01,2013-03-06 02:28:00,
2013-03-05 21:33:00,64.4,38.3,30.05,WSW,240,0.0,0.0,38,0.00,,---,0.00,VWS V14.01,2013-03-06 02:33:00,
2013-03-05 21:38:00,64.4,38.3,30.05,SW,223,0.0,0.0,38,0.00,,---,0.00,VWS V14.01,2013-03-06 02:38:00,
2013-03-05 21:43:00,64.4,38.3,30.05,WSW,250,4.0,4.0,38,0.00,,---,0.00,VWS V14.01,2013-03-06 02:43:00,
2013-03-05 21:48:00,64.4,38.9,30.05,WSW,240,0.0,5.4,39,0.00,,---,0.00,VWS V14.01,2013-03-06 02:48:00,
2013-03-05 21:53:00,64.4,38.9,30.05,SW,227,2.7,2.7,39,0.00,,---,0.00,VWS V14.01,2013-03-06 02:53:00,
2013-03-05 21:58:00,64.4,38.9,30.05,SW,222,0.0,2.2,39,0.00,,---,0.00,VWS V14.01,2013-03-06 02:58:00,
2013-03-05 22:03:00,64.6,39.7,30.05,SW,234,3.1,3.1,40,0.00,,---,0.00,VWS V14.01,2013-03-06 03:03:00,
2013-03-05 22:08:00,64.6,39.7,30.05,WSW,238,3.6,5.4,40,0.00,,---,0.00,VWS V14.01,2013-03-06 03:08:00,
2013-03-05 22:13:00,64.6,39.7,30.05,SSW,209,2.2,3.1,40,0.00,,---,0.00,VWS V14.01,2013-03-06 03:13:00,
2013-03-05 22:18:00,64.8,40.5,30.05,WSW,246,2.2,3.6,41,0.00,,---,0.00,VWS V14.01,2013-03-06 03:18:00,
2013-03-05 22:23:00,64.8,40.5,30.05,WSW,243,0.0,0.0,41,0.00,,---,0.00,VWS V14.01,2013-03-06 03:23:00,
2013-03-05 22:28:00,64.8,41.2,30.05,WSW,241,4.0,4.0,42,0.00,,---,0.00,VWS V14.01,2013-03-06 03:28:00,
2013-03-05 22:33:00,64.8,41.2,30.05,SW,234,0.0,2.2,42,0.00,,---,0.00,VWS V14.01,2013-03-06 03:33:00,
2013-03-05 22:38:00,64.8,41.8,30.05,WNW,284,3.1,3.6,43,0.00,,---,0.00,VWS V14.01,2013-03-06 03:38:00,
2013-03-05 22:43:00,64.9,42.5,30.05,SW,233,5.8,5.8,44,0.00,,---,0.00,VWS V14.01,2013-03-06 03:43:00,
2013-03-05 22:48:00,65.1,42.7,30.05,WSW,246,2.2,3.1,44,0.00,,---,0.00,VWS V14.01,2013-03-06 03:48:00,
2013-03-05 22:53:00,65.1,42.7,30.05,SW,236,0.0,4.9,44,0.00,,---,0.00,VWS V14.01,2013-03-06 03:53:00,
2013-03-05 22:58:00,65.3,42.8,30.05,WSW,251,0.0,4.0,44,0.00,,---,0.00,VWS V14.01,2013-03-06 03:58:00,
2013-03-05 23:03:00,65.3,42.2,30.05,WSW,251,3.1,3.1,43,0.00,,---,0.00,VWS V14.01,2013-03-06 04:03:00,
2013-03-05 23:08:00,65.5,42.4,30.02,SW,233,0.0,3.1,43,0.00,,---,0.00,VWS V14.01,2013-03-06 04:08:00,
2013-03-05 23:13:00,65.5,41.8,30.02,WSW,248,0.0,2.7,42,0.00,,---,0.00,VWS V14.01,2013-03-06 04:13:00,
2013-03-05 23:18:00,65.5,41.8,30.02,WSW,247,3.1,3.1,42,0.00,,---,0.00,VWS V14.01,2013-03-06 04:18:00,
2013-03-05 23:23:00,65.5,41.2,30.05,WSW,241,3.1,3.1,41,0.00,,---,0.00,VWS V14.01,2013-03-06 04:23:00,
2013-03-05 23:28:00,65.7,41.3,30.05,SW,230,2.7,4.0,41,0.00,,---,0.00,VWS V14.01,2013-03-06 04:28:00,
2013-03-05 23:33:00,65.7,41.3,30.05,SW,236,2.7,4.9,41,0.00,,---,0.00,VWS V14.01,2013-03-06 04:33:00,
2013-03-05 23:38:00,65.7,41.3,30.05,SW,215,0.0,0.0,41,0.00,,---,0.00,VWS V14.01,2013-03-06 04:38:00,
2013-03-05 23:43:00,65.7,40.7,30.05,SW,233,0.0,0.0,40,0.00,,---,0.00,VWS V14.01,2013-03-06 04:43:00,
2013-03-05 23:48:00,65.7,40.7,30.05,WSW,243,0.0,2.2,40,0.00,,---,0.00,VWS V14.01,2013-03-06 04:48:00,
2013-03-05 23:53:00,65.7,40.7,30.05,SW,232,0.0,0.0,40,0.00,,---,0.00,VWS V14.01,2013-03-06 04:53:00,
2013-03-05 23:58:00,65.7,40.0,30.05,SW,232,2.2,3.6,39,0.00,,---,0.00,VWS V14.01,2013-03-06 04:58:00,